Regional Weather Roundup
Issued by NWS Sterling, VA

Home | Current Version | Previous Version | Text Only | Print | Product List | Glossary On
Versions: 1 2 3 4 5 6 7 8 9 10 11 12 13 14 15 16 17 18 19 20 21 22 23 24 25 26 27 28 29 30 31 32 33 34 35 36 37 38 39
000
ASUS41 KLWX 280510
RWRLWX

REGIONAL WEATHER ROUNDUP
NATIONAL WEATHER SERVICE BALTIMORE MD/WASHINGTON DC
1200 AM EST SUN DEC 28 2014

Note: "FAIR" indicates few or no clouds below 12,000 feet
with no significant weather and/or obstructions to visibility.
 TC=TEMPERATURE CELSIUS

 * =Non NWS site. Station does not report precipitation (e.g. rain,
    snow, etc.), thunder, or fog.

DCZ001-MDZ009-015-VAZ040>042-051-053>054-280600-
WASHINGTON METRO

CITY           SKY/WX    TMP DP  RH WIND       PRES   REMARKS
WASHINGTON NAT CLOUDY    46  36  68 S5        30.08F
DULLES         MOCLDY    39  33  79 S3        30.06F
ANDREWS AFB    MOCLDY    46  37  70 S8        30.07F
FT BELVOIR     MOCLDY    37  34  89 NW2       30.07F
QUANTICO       MOCLDY    41  35  79 SW3       30.09F
COLLEGE PARK*  PTCLDY    36  34  93 CALM      30.07F
LEESBURG*      PTCLDY    41  34  75 S6        30.06F
MANASSAS*      CLOUDY    36  36 100 CALM      30.07F
GAITHERSBURG*  PTCLDY    43  34  70 SE5       30.09F

$$

MDZ006>007-011-014-280600-
BALTIMORE METRO

CITY           SKY/WX    TMP DP  RH WIND       PRES   REMARKS
BWI AIRPORT    MOCLDY    38  33  82 CALM      30.06F
MD SCIENCE CTR   N/A     43  35  73 MISG      30.07F
MARTIN STATE   CLEAR     34  34 100 CALM      30.09F
ANNAPOLIS      PTCLDY    43  39  86 SE3       30.07F
FORT MEADE*    CLEAR     32  32 100 CALM      30.09F

$$

MDZ012-015-019>023-280600-
MARYLAND EASTERN SHORE

CITY           SKY/WX    TMP DP  RH WIND       PRES   REMARKS
OCEAN CITY     MOCLDY    48  41  76 SW9       30.13F
SALISBURY      CLOUDY    46  39  76 S6        30.12F
BAY BRIDGE AP*   N/A     45  37  76 S6        30.08F
CAMBRIDGE*     MOCLDY    45  39  81 S5        30.10F
EASTON*        MOCLDY    47  41  81 CALM      30.13F

$$

MDZ017>025-280600-
SOUTHERN MARYLAND

CITY           SKY/WX    TMP DP  RH WIND       PRES   REMARKS
PATUXENT RIVER CLOUDY    50  37  61 VRB5      30.09F
ST INIGOES     CLOUDY    48  37  65 S3        30.09F
LEONARDTOWN*   CLOUDY    50  36  57 SW5       30.10F

$$

MDZ003>005-280600-
NORTH CENTRAL MARYLAND

CITY           SKY/WX    TMP DP  RH WIND       PRES   REMARKS
FREDERICK*     PTCLDY    37  32  81 CALM      30.08F
HAGERSTOWN APT MOCLDY    48  29  47 E3        30.01F
WESTMINSTER*   PTCLDY    46  36  66 S5        30.04F

$$

MDZ501>502-280600-
WESTERN MARYLAND

CITY           SKY/WX    TMP DP  RH WIND       PRES   REMARKS
OAKLAND*       NOT AVBL
CUMBERLAND*    MOCLDY    41  34  75 CALM      30.05F

$$

VAZ025>031-280600-
SHENANDOAH VALLEY

CITY           SKY/WX    TMP DP  RH WIND       PRES   REMARKS
WINCHESTER*    CLOUDY    48  25  40 SW5       30.02F
FRONT ROYAL*   MOCLDY    48  30  49 S7        30.02F
LURAY*         FAIR      52  32  46 S5        30.04F
NEW MARKET*    CLOUDY    43  32  64 SW6       30.04F
STAUNTON*      CLOUDY    48  30  50 SW3       30.08F
WAYNESBORO*    MOCLDY    44  27  51 CALM      30.07F

$$

WVZ021-048>050-054>055-280600-
EASTERN WEST VIRGINIA PANHANDLE

CITY           SKY/WX    TMP DP  RH WIND       PRES   REMARKS
MARTINSBURG    MOCLDY    40  29  64 CALM      30.02F
PETERSBURG*    PTCLDY    40  34  79 CALM      30.02F

$$

VAZ036>039-050-280600-
CENTRAL FOOTHILLS

CITY           SKY/WX    TMP DP  RH WIND       PRES   REMARKS
CHARLOTTESVILL CLOUDY    50  34  54 S7        30.07F
CULPEPER*      PTCLDY    39  36  87 CALM      30.07F
ORANGE*        MOCLDY    46  37  71 S5        30.09F
GORDONSVILLE*  MOCLDY    43  37  80 SW3       30.08F
WARRENTON*     CLOUDY    38  38 100 CALM      30.06F

$$

VAZ055>057-280600-
NORTH AND CENTRAL PIEDMONT

CITY           SKY/WX    TMP DP  RH WIND       PRES   REMARKS
FREDERICKSBRG* MOCLDY    43  39  86 CALM      30.08F
STAFFORD*      MOCLDY    41  34  76 CALM      30.12F

$$

NCZ024-NYZ072-PAZ021-071-VAZ022-071-280600-
OTHER REGIONAL OBSERVATIONS

CITY           SKY/WX    TMP DP  RH WIND       PRES   REMARKS
NEW YORK CITY  CLOUDY    50  35  56 VRB7      30.10F
PHILADELPHIA   MOCLDY    42  36  79 CALM      30.09F
PITTSBURGH     LGT RAIN  45  41  86 W14       30.00R FOG
ROANOKE        CLOUDY    50  35  56 CALM      30.12F
RICHMOND       CLOUDY    50  39  66 S6        30.12F
RALEIGH        CLOUDY    51  38  60 CALM      30.18F

$$

ANZ530>537-280600-
MARINE OBSERVATIONS

STATION/POSITION TIME  TEMP    WIND        PRES
                       AIR SEA DIR/SP/G
                 (UTC) (F)     (DEG/KT/KT) (MB)
THOMAS PT LIGHT  0500   46 43  170/ 11/ 11 1019.6F
BALT KEY BRIDGE  0500   41                   N/A
COVE POINT       0500   50                   N/A
LEWISETTA        0500   52                   N/A
SOLOMONS ISLAND  0400      44                N/A
PINEY POINT      0400          210/  5/  5   N/A

$$



USA.gov is the U.S. government's official web portal to all federal, state and local government web resources and services.